Location: Kawakawa
(35.3830°S, 174.0670°E)
Time: 17:36:12
(UTC+12:00)

Cosmos 1943 Rocket - Pass Details

Date: 15 August 2020
Orbit: 813 x 843 km, 71.0° (Epoch: 25 September)

Event Time Altitude Azimuth Distance (km) Brightness Sun altitude
Rises 18:55:04 0° 329° (NNW) 3,330 5.9 -13.4°
Reaches altitude 10° 18:57:31 10° 325° (NW) 2,404 5.2 -13.9°
Maximum altitude 19:02:55 57° 246° (WSW) 966 2.8 -15.0°
Drops below altitude 10° 19:08:24 10° 167° (SSE) 2,431 4.4 -16.1°
Sets 19:10:54 0° 163° (SSE) 3,371 5.1 -16.6°
